Location: Briis
(48.6240°N, 2.1211°E)
Time: 07:31:14
(UTC+00:00)

Cosmos 2333 Rocket - Pass Details

Date: 25 September 2020
Orbit: 839 x 863 km, 70.8° (Epoch: 21 October)

Event Time Altitude Azimuth Distance (km) Brightness Sun altitude
Rises 03:49:03 0° 172° (S) 3,427 5.2 -19.2°
Reaches altitude 10° 03:51:47 10° 162° (SSE) 2,496 4.6 -18.8°
Maximum altitude 03:56:37 29° 104° (ESE) 1,542 4.1 -18.0°
Drops below altitude 10° 04:01:28 10° 47° (NE) 2,507 5.7 -17.3°
Sets 04:04:13 0° 36° (NE) 3,447 6.3 -16.8°
